Location: Bonneuil
(46.1010°N, 2.9693°E)
Time: 10:54:49
(UTC+00:00)

Resurs 01 Rocket - Pass Details

Date: 09 April 2020
Orbit: 634 x 644 km, 98.0° (Epoch: 03 June)

Event Time Altitude Azimuth Distance (km) Brightness Sun altitude
Exits shadow 19:17:44 12° 117° (ESE) 1,909 3.4 -9.1°
Maximum altitude 19:20:59 25° 65° (ENE) 1,286 2.8 -9.6°
Drops below altitude 10° 19:24:36 10° 10° (N) 2,037 4.4 -10.2°
Sets 19:27:06 0° 358° (N) 2,952 5.4 -10.6°
